Location: Chuathbaluk
(61.5726°N, 159.2454°W)
Time: 22:59:36
(UTC+00:00)

Transit 4A - Pass Details

Date: 28 November 2020
Orbit: 864 x 980 km, 66.8° (Epoch: 20 January)

Event Time Altitude Azimuth Distance (km) Brightness Sun altitude
Rises 19:49:49 0° 219° (SW) 3,652 11.2 1.3°
Reaches altitude 10° 19:52:21 10° 217° (SW) 2,718 10.6 1.5°
Maximum altitude 19:58:41 69° 136° (SE) 1,048 8.6 1.9°
Drops below altitude 10° 20:05:05 10° 54° (NE) 2,742 10.4 2.3°
Sets 20:07:39 0° 53° (NE) 3,687 11.0 2.5°
